Time,TemperatureF,DewpointF,PressureIn,WindDirection,WindDirectionDegrees,WindSpeedMPH,WindSpeedGustMPH,Humidity,HourlyPrecipIn,Conditions,Clouds,dailyrainin,SoftwareType,DateUTC
2013-10-06 00:00:00,72.1,69.0,29.98,ENE,75,0.0,0.0,90,0.00,,,0.00,weatherlink.com 1.10,2013-10-06 04:00:00,
2013-10-06 00:15:00,71.9,69.0,29.97,ENE,75,0.0,0.0,91,0.00,,,0.00,weatherlink.com 1.10,2013-10-06 04:15:00,
2013-10-06 00:30:00,71.7,69.0,29.97,ENE,75,0.0,0.0,92,0.00,,,0.00,weatherlink.com 1.10,2013-10-06 04:30:00,
2013-10-06 00:45:00,71.8,70.0,29.97,ENE,75,0.0,1.0,93,0.00,,,0.00,weatherlink.com 1.10,2013-10-06 04:45:00,
2013-10-06 01:00:00,71.4,69.0,29.97,ENE,75,0.0,0.0,93,0.00,,,0.00,weatherlink.com 1.10,2013-10-06 05:00:00,
2013-10-06 01:15:00,71.0,69.0,29.96,ENE,75,0.0,0.0,93,0.00,,,0.00,weatherlink.com 1.10,2013-10-06 05:15:00,
2013-10-06 01:30:00,70.7,69.0,29.96,ENE,75,0.0,0.0,93,0.00,,,0.00,weatherlink.com 1.10,2013-10-06 05:30:00,
2013-10-06 01:45:00,70.4,68.0,29.96,ENE,75,0.0,0.0,93,0.00,,,0.00,weatherlink.com 1.10,2013-10-06 05:45:00,
2013-10-06 02:00:00,70.4,69.0,29.95,ENE,75,0.0,0.0,94,0.00,,,0.00,weatherlink.com 1.10,2013-10-06 06:00:00,
2013-10-06 02:15:00,70.1,68.0,29.95,ENE,75,0.0,0.0,94,0.00,,,0.00,weatherlink.com 1.10,2013-10-06 06:15:00,
2013-10-06 02:30:00,69.9,68.0,29.95,ENE,75,0.0,0.0,94,0.00,,,0.00,weatherlink.com 1.10,2013-10-06 06:30:00,
2013-10-06 02:45:00,69.8,68.0,29.94,ENE,75,0.0,0.0,94,0.00,,,0.00,weatherlink.com 1.10,2013-10-06 06:45:00,
2013-10-06 03:00:00,69.6,68.0,29.94,ENE,75,0.0,0.0,94,0.00,,,0.00,weatherlink.com 1.10,2013-10-06 07:00:00,
2013-10-06 03:15:00,69.4,68.0,29.93,ENE,75,0.0,0.0,94,0.00,,,0.00,weatherlink.com 1.10,2013-10-06 07:15:00,
2013-10-06 03:30:00,69.2,68.0,29.93,ENE,75,0.0,0.0,94,0.00,,,0.00,weatherlink.com 1.10,2013-10-06 07:30:00,
2013-10-06 03:45:00,69.3,68.0,29.93,ENE,75,0.0,0.0,95,0.00,,,0.00,weatherlink.com 1.10,2013-10-06 07:45:00,
2013-10-06 04:00:00,69.6,68.0,29.92,ENE,75,0.0,0.0,95,0.00,,,0.00,weatherlink.com 1.10,2013-10-06 08:00:00,
2013-10-06 04:15:00,69.7,68.0,29.92,ENE,75,0.0,0.0,95,0.00,,,0.00,weatherlink.com 1.10,2013-10-06 08:15:00,
2013-10-06 04:30:00,69.8,68.0,29.92,ENE,75,0.0,0.0,95,0.00,,,0.00,weatherlink.com 1.10,2013-10-06 08:30:00,
2013-10-06 04:45:00,70.1,69.0,29.91,ENE,75,0.0,0.0,96,0.00,,,0.00,weatherlink.com 1.10,2013-10-06 08:45:00,
2013-10-06 05:00:00,70.0,69.0,29.91,ENE,75,0.0,0.0,96,0.00,,,0.00,weatherlink.com 1.10,2013-10-06 09:00:00,
2013-10-06 05:15:00,70.1,69.0,29.91,ENE,75,0.0,0.0,96,0.00,,,0.00,weatherlink.com 1.10,2013-10-06 09:15:00,
2013-10-06 05:31:00,70.3,69.0,29.91,ENE,75,0.0,0.0,96,0.00,,,0.00,weatherlink.com 1.10,2013-10-06 09:31:00,
2013-10-06 05:46:00,70.2,69.0,29.92,ENE,75,0.0,0.0,96,0.00,,,0.00,weatherlink.com 1.10,2013-10-06 09:46:00,
2013-10-06 06:01:00,70.1,69.0,29.92,ENE,75,0.0,0.0,96,0.00,,,0.00,weatherlink.com 1.10,2013-10-06 10:01:00,
2013-10-06 06:16:00,70.3,69.0,29.93,ENE,75,0.0,0.0,96,0.00,,,0.00,weatherlink.com 1.10,2013-10-06 10:16:00,
2013-10-06 06:31:00,70.5,70.0,29.93,ENE,75,0.0,0.0,97,0.00,,,0.00,weatherlink.com 1.10,2013-10-06 10:31:00,
2013-10-06 06:46:00,70.3,69.0,29.93,ENE,75,0.0,0.0,96,0.00,,,0.00,weatherlink.com 1.10,2013-10-06 10:46:00,
2013-10-06 07:01:00,69.9,69.0,29.93,ENE,75,0.0,0.0,96,0.00,,,0.00,weatherlink.com 1.10,2013-10-06 11:01:00,
2013-10-06 07:16:00,69.5,68.0,29.93,ENE,75,0.0,0.0,96,0.00,,,0.00,weatherlink.com 1.10,2013-10-06 11:16:00,
2013-10-06 07:31:00,69.7,69.0,29.93,ENE,75,0.0,0.0,97,0.00,,,0.00,weatherlink.com 1.10,2013-10-06 11:31:00,
2013-10-06 07:46:00,69.4,68.0,29.93,ENE,75,0.0,0.0,96,0.00,,,0.00,weatherlink.com 1.10,2013-10-06 11:46:00,
2013-10-06 08:01:00,69.3,69.0,29.94,ENE,75,0.0,0.0,97,0.00,,,0.00,weatherlink.com 1.10,2013-10-06 12:01:00,
2013-10-06 08:16:00,70.1,69.0,29.94,ENE,75,0.0,0.0,97,0.00,,,0.00,weatherlink.com 1.10,2013-10-06 12:16:00,
2013-10-06 08:31:00,73.0,72.0,29.94,ENE,75,0.0,2.0,98,0.00,,,0.00,weatherlink.com 1.10,2013-10-06 12:31:00,
2013-10-06 08:46:00,74.1,74.0,29.95,ENE,75,0.0,3.0,98,0.00,,,0.00,weatherlink.com 1.10,2013-10-06 12:46:00,
2013-10-06 09:01:00,74.8,74.0,29.95,ENE,67,0.0,3.0,98,0.00,,,0.00,weatherlink.com 1.10,2013-10-06 13:01:00,
2013-10-06 09:16:00,75.3,75.0,29.95,NE,48,0.0,3.0,98,0.00,,,0.00,weatherlink.com 1.10,2013-10-06 13:16:00,
2013-10-06 09:31:00,76.2,75.0,29.95,NE,54,2.0,3.0,97,0.00,,,0.00,weatherlink.com 1.10,2013-10-06 13:31:00,
2013-10-06 09:46:00,78.6,76.0,29.95,South,169,2.0,2.0,92,0.00,,,0.00,weatherlink.com 1.10,2013-10-06 13:46:00,
2013-10-06 10:01:00,80.2,76.0,29.96,SE,126,0.0,3.0,87,0.00,,,0.00,weatherlink.com 1.10,2013-10-06 14:01:00,
2013-10-06 10:16:00,81.0,76.0,29.96,SSW,200,1.0,3.0,84,0.00,,,0.00,weatherlink.com 1.10,2013-10-06 14:16:00,
2013-10-06 10:31:00,82.3,76.0,29.96,ENE,78,1.0,4.0,80,0.00,,,0.00,weatherlink.com 1.10,2013-10-06 14:31:00,
2013-10-06 10:46:00,82.9,75.0,29.96,South,171,0.0,3.0,76,0.00,,,0.00,weatherlink.com 1.10,2013-10-06 14:46:00,
2013-10-06 11:01:00,83.3,75.0,29.96,West,281,0.0,2.0,75,0.00,,,0.00,weatherlink.com 1.10,2013-10-06 15:01:00,
2013-10-06 11:16:00,83.6,75.0,29.95,South,184,2.0,6.0,74,0.00,,,0.00,weatherlink.com 1.10,2013-10-06 15:16:00,
2013-10-06 11:31:00,85.2,75.0,29.95,ESE,111,0.0,3.0,72,0.00,,,0.00,weatherlink.com 1.10,2013-10-06 15:31:00,
2013-10-06 11:46:00,86.1,74.0,29.95,SSW,211,2.0,7.0,67,0.00,,,0.00,weatherlink.com 1.10,2013-10-06 15:46:00,
2013-10-06 12:01:00,86.4,73.0,29.94,South,177,0.0,4.0,65,0.00,,,0.00,weatherlink.com 1.10,2013-10-06 16:01:00,
2013-10-06 12:16:00,86.3,75.0,29.94,SSW,211,1.0,5.0,68,0.00,,,0.00,weatherlink.com 1.10,2013-10-06 16:16:00,
2013-10-06 12:31:00,87.4,74.0,29.93,South,170,1.0,6.0,65,0.00,,,0.00,weatherlink.com 1.10,2013-10-06 16:31:00,
2013-10-06 12:46:00,88.4,75.0,29.93,SSW,202,1.0,5.0,65,0.00,,,0.00,weatherlink.com 1.10,2013-10-06 16:46:00,
2013-10-06 13:01:00,89.3,74.0,29.92,NE,38,2.0,4.0,61,0.00,,,0.00,weatherlink.com 1.10,2013-10-06 17:01:00,
2013-10-06 13:16:00,88.0,73.0,29.92,NE,40,2.0,5.0,62,0.00,,,0.00,weatherlink.com 1.10,2013-10-06 17:16:00,
2013-10-06 13:31:00,89.8,73.0,29.91,SSW,205,2.0,4.0,58,0.00,,,0.00,weatherlink.com 1.10,2013-10-06 17:31:00,
2013-10-06 13:46:00,90.0,72.0,29.91,SSE,165,1.0,4.0,56,0.00,,,0.00,weatherlink.com 1.10,2013-10-06 17:46:00,
2013-10-06 14:02:00,90.1,72.0,29.90,SW,228,0.0,4.0,56,0.00,,,0.00,weatherlink.com 1.10,2013-10-06 18:02:00,
2013-10-06 14:17:00,90.4,72.0,29.89,SSW,205,4.0,7.0,54,0.00,,,0.00,weatherlink.com 1.10,2013-10-06 18:17:00,
2013-10-06 14:32:00,87.9,72.0,29.89,SW,229,2.0,4.0,59,0.00,,,0.00,weatherlink.com 1.10,2013-10-06 18:32:00,
2013-10-06 14:47:00,89.5,72.0,29.88,SSE,165,2.0,5.0,57,0.00,,,0.00,weatherlink.com 1.10,2013-10-06 18:47:00,
2013-10-06 15:02:00,89.6,72.0,29.87,SW,214,1.0,4.0,57,0.00,,,0.00,weatherlink.com 1.10,2013-10-06 19:02:00,
2013-10-06 15:17:00,88.1,73.0,29.87,West,261,0.0,4.0,61,0.00,,,0.00,weatherlink.com 1.10,2013-10-06 19:17:00,
2013-10-06 15:32:00,90.5,71.0,29.86,West,259,0.0,7.0,52,0.00,,,0.00,weatherlink.com 1.10,2013-10-06 19:32:00,
2013-10-06 15:47:00,90.9,69.0,29.85,West,259,6.0,7.0,48,0.00,,,0.00,weatherlink.com 1.10,2013-10-06 19:47:00,
2013-10-06 16:02:00,90.6,69.0,29.85,SW,225,5.0,8.0,49,0.00,,,0.00,weatherlink.com 1.10,2013-10-06 20:02:00,
2013-10-06 16:17:00,90.4,68.0,29.85,SW,227,2.0,8.0,48,0.00,,,0.00,weatherlink.com 1.10,2013-10-06 20:17:00,
2013-10-06 16:32:00,90.8,69.0,29.85,SSW,202,1.0,6.0,49,0.00,,,0.00,weatherlink.com 1.10,2013-10-06 20:32:00,
2013-10-06 16:47:00,90.5,69.0,29.85,WSW,243,3.0,5.0,50,0.00,,,0.00,weatherlink.com 1.10,2013-10-06 20:47:00,
2013-10-06 17:02:00,90.2,69.0,29.85,SSW,211,1.0,4.0,50,0.00,,,0.00,weatherlink.com 1.10,2013-10-06 21:02:00,
2013-10-06 17:17:00,89.9,69.0,29.85,South,186,1.0,5.0,50,0.00,,,0.00,weatherlink.com 1.10,2013-10-06 21:17:00,
2013-10-06 17:32:00,89.5,71.0,29.85,SSW,207,0.0,3.0,54,0.00,,,0.00,weatherlink.com 1.10,2013-10-06 21:32:00,
2013-10-06 17:47:00,89.3,70.0,29.84,SW,227,0.0,4.0,53,0.00,,,0.00,weatherlink.com 1.10,2013-10-06 21:47:00,
2013-10-06 18:02:00,88.1,70.0,29.84,SW,214,0.0,3.0,55,0.00,,,0.00,weatherlink.com 1.10,2013-10-06 22:02:00,
2013-10-06 18:17:00,87.6,70.0,29.84,SSW,213,0.0,1.0,56,0.00,,,0.00,weatherlink.com 1.10,2013-10-06 22:17:00,
2013-10-06 18:32:00,86.6,72.0,29.85,ENE,58,4.0,6.0,62,0.00,,,0.00,weatherlink.com 1.10,2013-10-06 22:32:00,
2013-10-06 18:47:00,84.0,73.0,29.86,NE,52,1.0,8.0,69,0.00,,,0.00,weatherlink.com 1.10,2013-10-06 22:47:00,
2013-10-06 19:02:00,82.7,73.0,29.86,NE,42,1.0,2.0,72,0.00,,,0.00,weatherlink.com 1.10,2013-10-06 23:02:00,
2013-10-06 19:17:00,81.7,73.0,29.87,NE,40,0.0,2.0,74,0.00,,,0.00,weatherlink.com 1.10,2013-10-06 23:17:00,
2013-10-06 19:32:00,80.9,73.0,29.87,NE,40,0.0,3.0,76,0.00,,,0.00,weatherlink.com 1.10,2013-10-06 23:32:00,
2013-10-06 19:47:00,80.5,72.0,29.88,NE,40,0.0,0.0,75,0.00,,,0.00,weatherlink.com 1.10,2013-10-06 23:47:00,
2013-10-06 20:02:00,79.7,73.0,29.88,NE,40,0.0,1.0,79,0.00,,,0.00,weatherlink.com 1.10,2013-10-07 00:02:00,
2013-10-06 20:17:00,79.3,73.0,29.88,NE,40,0.0,0.0,80,0.00,,,0.00,weatherlink.com 1.10,2013-10-07 00:17:00,
2013-10-06 20:32:00,78.9,73.0,29.89,NE,40,0.0,1.0,82,0.00,,,0.00,weatherlink.com 1.10,2013-10-07 00:32:00,
2013-10-06 20:47:00,78.6,72.0,29.89,NE,40,0.0,0.0,81,0.00,,,0.00,weatherlink.com 1.10,2013-10-07 00:47:00,
2013-10-06 21:02:00,78.0,73.0,29.89,NE,40,0.0,0.0,83,0.00,,,0.00,weatherlink.com 1.10,2013-10-07 01:02:00,
2013-10-06 21:17:00,77.6,73.0,29.89,NE,40,0.0,0.0,85,0.00,,,0.00,weatherlink.com 1.10,2013-10-07 01:17:00,
2013-10-06 21:32:00,77.3,73.0,29.89,NE,40,0.0,0.0,86,0.00,,,0.00,weatherlink.com 1.10,2013-10-07 01:32:00,
2013-10-06 21:47:00,77.2,73.0,29.89,NE,40,0.0,0.0,87,0.00,,,0.00,weatherlink.com 1.10,2013-10-07 01:47:00,
2013-10-06 22:02:00,77.2,74.0,29.89,NE,40,0.0,0.0,88,0.02,,,0.02,weatherlink.com 1.10,2013-10-07 02:02:00,
2013-10-06 22:17:00,77.0,74.0,29.89,NE,40,0.0,1.0,89,0.03,,,0.03,weatherlink.com 1.10,2013-10-07 02:17:00,
2013-10-06 22:32:00,76.8,74.0,29.89,NE,40,0.0,0.0,90,0.04,,,0.04,weatherlink.com 1.10,2013-10-07 02:32:00,
2013-10-06 22:47:00,76.6,74.0,29.89,NE,40,0.0,0.0,91,0.04,,,0.04,weatherlink.com 1.10,2013-10-07 02:47:00,
2013-10-06 23:02:00,76.4,74.0,29.89,NE,40,0.0,0.0,91,0.02,,,0.04,weatherlink.com 1.10,2013-10-07 03:02:00,
2013-10-06 23:17:00,76.0,74.0,29.88,NE,40,0.0,0.0,92,0.01,,,0.04,weatherlink.com 1.10,2013-10-07 03:17:00,
2013-10-06 23:32:00,75.6,73.0,29.88,NE,40,0.0,0.0,92,0.00,,,0.04,weatherlink.com 1.10,2013-10-07 03:32:00,
2013-10-06 23:47:00,75.2,73.0,29.87,NE,40,0.0,0.0,92,0.00,,,0.04,weatherlink.com 1.10,2013-10-07 03:47:00,